426P/PanSTARRS (2023)

Japanese version
Home page
Updated on October 6, 2021

---------------------------------------------------------------------

* Profile

Designation 426P/2021 K4
Recovery Date May 17, 2021
Magnitude 22.2 mag
Recoverer M. Micheli, H. H. Hsieh, J. Chavez (Gemini South telescope at Cerro Pachon, Chile)

* Orbital Elements

Epoch 2023 Sept. 13.0 TT = JDT 2460200.5                                        
T 2023 Sept. 12.14497 TT                                Rudenko                 
q   2.6737769            (2000.0)            P               Q                  
n   0.17294561     Peri.  118.77039     +0.73383660     -0.60943982             
a   3.1905314      Node   280.42870     +0.46652220     +0.77324094             
e   0.1619650      Incl.   17.76733     +0.49380246     +0.17516150             
P   5.70                                                                        
From 98 observations 2017 Oct. 1-2021 June 13, mean residual 0".4.              

* Magnitudes Graph

        m1 = 14.0 + 5 log d + 10.0 log r

---------------------------------------------------------------------

The orbital elements are published on M.P.E.C. 2021-P78.
The magnitudes graphs are made with Comet for Windows.

---------------------------------------------------------------------

Copyright(C) Seiichi Yoshida (comet@aerith.net). All rights reserved.